Waarnemingen

Advertentie
Mijn weer
Koksijde, België (6400): temperatuur & dauwpunt: 15.06.2018 19:00:00 - 21.06.2018 19:00:00 (CEST)Koksijde, België (6400): windsnelheid & windstoten: 15.06.2018 19:00:00 - 21.06.2018 19:00:00 (CEST)Koksijde, België (6400): windrichting: 15.06.2018 19:00:00 - 21.06.2018 19:00:00 (CEST)Koksijde, België (6400): luchtdruk: 15.06.2018 19:00:00 - 21.06.2018 19:00:00 (CEST)Koksijde, België (6400): zicht: 15.06.2018 19:00:00 - 21.06.2018 19:00:00 (CEST)
Datum & Tijd tt [°C] td [°C] ff [km/u] ff [kn] fx [km/u] fx [kn] dd ppp [hPa] vv [km]
21.06.2018 19:00:00 14,3 5,8 22 12 43 23 N 1027,7 18
21.06.2018 18:00:00 15,1 6,0 25 14 40 21 N 1027,4 18
21.06.2018 17:00:00 15,3 6,3 25 14 - - N 1027,0 20
21.06.2018 16:00:00 15,6 5,9 25 14 40 21 N 1026,2 20
21.06.2018 15:00:00 16,0 5,1 22 12 40 21 NNW 1025,7 20
21.06.2018 14:00:00 15,1 5,1 22 12 - - N 1025,2 20
21.06.2018 13:00:00 15,3 6,2 25 14 40 21 NNW 1024,7 20
21.06.2018 12:00:00 14,7 5,1 25 14 40 21 NNW 1024,0 20
21.06.2018 11:00:00 - - - - - - - - -
21.06.2018 10:00:00 14,6 6,9 25 14 36 19 NNW 1022,6 20
21.06.2018 09:00:00 14,2 6,7 25 14 47 25 NNW 1022,1 15
21.06.2018 08:00:00 13,8 6,8 25 14 - - NNW 1021,2 12
21.06.2018 07:00:00 13,6 7,0 22 12 47 25 NW 1020,6 12
21.06.2018 06:00:00 14,6 8,4 25 14 47 25 NW 1019,6 13
21.06.2018 05:00:00 16,0 12,4 14 8 - - NNW 1019,0 18
21.06.2018 04:00:00 15,8 14,2 22 12 32 18 WNW 1018,7 11
21.06.2018 03:00:00 15,3 13,6 11 6 22 12 W 1018,3 11
21.06.2018 02:00:00 15,3 13,6 11 6 - - W 1018,5 13
21.06.2018 01:00:00 15,1 13,4 11 6 14 8 WZW 1018,7 15
21.06.2018 00:00:00 15,6 13,7 11 6 18 10 WZW 1018,7 20
20.06.2018 23:00:00 17,0 14,2 11 6 - - WZW 1019,0 20
20.06.2018 22:00:00 18,5 14,3 14 8 25 14 WZW 1018,7 20
20.06.2018 21:00:00 20,9 14,6 14 8 25 14 WZW 1019,0 20
20.06.2018 20:00:00 21,8 14,7 18 10 - - WZW 1019,2 20
20.06.2018 19:00:00 22,6 14,9 14 8 29 16 WZW 1019,6 20
20.06.2018 18:00:00 21,6 15,4 18 10 25 14 W 1020,0 20
20.06.2018 17:00:00 23,4 15,8 14 8 - - W 1020,3 20
20.06.2018 16:00:00 23,7 14,7 18 10 36 19 W 1020,7 20
20.06.2018 15:00:00 22,4 15,5 18 10 32 18 ZW 1021,0 20
20.06.2018 14:00:00 21,9 15,5 18 10 - - ZW 1021,6 20
20.06.2018 13:00:00 20,2 14,8 14 8 29 16 WZW 1022,2 20
20.06.2018 12:00:00 19,1 14,8 18 10 29 16 ZW 1022,3 20
20.06.2018 11:00:00 17,8 14,4 18 10 - - ZW 1022,2 20
20.06.2018 10:00:00 16,5 14,5 18 10 25 14 ZW 1022,6 20
20.06.2018 09:00:00 15,4 14,0 11 6 18 10 ZW 1022,7 20
20.06.2018 08:00:00 14,8 13,8 14 8 - - WZW 1022,7 5
20.06.2018 07:00:00 14,8 13,8 14 8 22 12 ZW 1022,6 6
20.06.2018 06:00:00 15,3 13,9 14 8 22 12 ZW 1022,7 7
20.06.2018 05:00:00 15,3 13,9 7 4 - - ZW 1022,8 16
20.06.2018 04:00:00 15,5 13,9 14 8 22 12 ZW 1023,0 19
20.06.2018 03:00:00 15,1 13,9 7 4 18 10 ZW 1023,3 18
20.06.2018 02:00:00 14,9 13,6 7 4 - - ZZW 1023,8 18
20.06.2018 01:00:00 15,6 13,7 14 8 25 14 ZW 1024,0 19
20.06.2018 00:00:00 16,1 13,7 18 10 25 14 ZW 1024,4 20
19.06.2018 23:00:00 16,8 14,0 14 8 - - ZW 1024,4 20
19.06.2018 22:00:00 17,5 14,0 18 10 25 14 ZW 1024,0 20
19.06.2018 21:00:00 18,8 14,5 14 8 25 14 WZW 1024,0 20
19.06.2018 20:00:00 19,8 14,3 18 10 - - WZW 1024,0 10
19.06.2018 19:00:00 19,7 15,1 4 2 7 4 N 1024,0 20
19.06.2018 18:00:00 18,5 15,0 4 2 22 12 N 1024,4 20
19.06.2018 17:00:00 19,2 14,6 18 10 - - ZW 1024,5 20
19.06.2018 16:00:00 19,4 13,9 14 8 22 12 WZW 1024,7 20
19.06.2018 15:00:00 - - - - - - - - -
19.06.2018 14:00:00 - - - - - - - - -
19.06.2018 13:00:00 - - - - - - - - -
19.06.2018 12:00:00 18,6 14,8 11 6 18 10 ZW 1024,5 15
19.06.2018 11:00:00 18,3 14,8 11 6 - - ZW 1024,5 15
19.06.2018 10:00:00 17,3 14,6 14 8 22 12 WZW 1024,4 15
19.06.2018 09:00:00 16,7 14,4 14 8 25 14 WZW 1024,0 12
19.06.2018 08:00:00 16,6 14,4 14 8 - - WZW 1023,6 10
19.06.2018 07:00:00 16,1 14,3 14 8 22 12 WZW 1023,1 8
19.06.2018 06:00:00 15,8 14,2 14 8 25 14 ZW 1023,0 8
19.06.2018 05:00:00 15,8 14,1 14 8 - - WZW 1022,3 8
19.06.2018 04:00:00 15,6 13,8 22 12 29 16 ZW 1022,1 10
19.06.2018 03:00:00 15,3 13,8 18 10 29 16 WZW 1022,0 8
19.06.2018 02:00:00 14,9 13,5 18 10 - - WZW 1021,8 9
19.06.2018 01:00:00 14,6 13,1 18 10 29 16 WZW 1021,7 8
19.06.2018 00:00:00 14,3 12,4 22 12 29 16 WZW 1022,0 25
18.06.2018 23:00:00 14,5 11,2 14 8 - - ZW 1022,0 25
18.06.2018 22:00:00 15,3 10,4 18 10 32 18 ZW 1021,5 25
18.06.2018 21:00:00 16,4 10,4 22 12 32 18 ZW 1021,2 25
18.06.2018 20:00:00 17,6 11,1 25 14 - - WZW 1020,8 25
18.06.2018 19:00:00 18,3 11,1 25 14 47 25 ZW 1021,0 25
18.06.2018 18:00:00 18,1 11,3 25 14 47 25 ZW 1021,0 25
18.06.2018 17:00:00 17,6 11,4 25 14 - - ZW 1021,1 25
18.06.2018 16:00:00 17,3 11,8 22 12 36 19 WZW 1021,6 20
18.06.2018 15:00:00 16,7 11,7 25 14 36 19 WZW 1021,2 20
18.06.2018 14:00:00 16,9 12,4 22 12 - - WZW 1021,2 20
18.06.2018 13:00:00 16,2 13,2 22 12 40 21 WZW 1021,1 6
18.06.2018 12:00:00 16,4 11,9 25 14 40 21 WZW 1020,6 19
18.06.2018 11:00:00 16,9 12,9 22 12 - - WZW 1020,2 19
18.06.2018 10:00:00 17,5 13,4 22 12 40 21 WZW 1019,7 19
18.06.2018 09:00:00 16,8 14,1 22 12 32 18 ZW 1019,3 15
18.06.2018 08:00:00 15,9 14,2 22 12 - - WZW 1019,2 15
18.06.2018 07:00:00 16,0 14,2 14 8 22 12 ZW 1018,7 15
18.06.2018 06:00:00 15,3 13,9 11 6 22 12 ZZW 1019,0 10
18.06.2018 05:00:00 15,1 13,1 11 6 - - ZZW 1018,5 10
18.06.2018 04:00:00 14,8 12,6 14 8 22 12 ZW 1018,7 12
18.06.2018 03:00:00 14,8 12,0 14 8 22 12 ZZW 1019,0 13
18.06.2018 02:00:00 14,8 11,9 14 8 - - ZZW 1019,1 16
18.06.2018 01:00:00 14,8 11,5 14 8 32 18 ZZW 1019,3 16
18.06.2018 00:00:00 15,1 11,1 22 12 32 18 ZW 1019,7 15
17.06.2018 23:00:00 15,5 10,1 14 8 - - ZW 1019,7 19
17.06.2018 22:00:00 15,6 9,7 14 8 25 14 ZW 1019,5 18
17.06.2018 21:00:00 15,6 9,4 14 8 29 16 WZW 1019,6 14
17.06.2018 20:00:00 16,2 9,1 18 10 - - WZW 1019,3 15
17.06.2018 19:00:00 17,1 8,7 25 14 40 21 WZW 1018,8 18
17.06.2018 18:00:00 17,4 9,3 22 12 43 23 WZW 1019,2 13
17.06.2018 17:00:00 17,3 8,3 25 14 - - WZW 1018,8 19
17.06.2018 16:00:00 18,7 9,4 22 12 40 21 WZW 1018,7 12
17.06.2018 15:00:00 17,6 9,4 25 14 36 19 WZW 1018,6 17
17.06.2018 14:00:00 15,3 11,1 22 12 - - W 1018,6 12
17.06.2018 13:00:00 16,3 9,7 22 12 32 18 WZW 1018,1 10
17.06.2018 12:00:00 16,0 10,5 18 10 29 16 WZW 1017,8 17
17.06.2018 11:00:00 14,9 11,3 14 8 - - WZW 1018,1 17
17.06.2018 10:00:00 14,8 10,8 18 10 29 16 WZW 1018,0 13
17.06.2018 09:00:00 14,3 11,3 18 10 25 14 ZW 1017,3 10
17.06.2018 08:00:00 13,8 11,0 14 8 - - ZW 1016,7 9
17.06.2018 07:00:00 13,3 10,8 14 8 18 10 ZW 1016,6 11
17.06.2018 06:00:00 12,8 10,6 11 6 18 10 ZZW 1016,2 8
17.06.2018 05:00:00 12,9 10,5 14 8 - - ZW 1016,2 9
17.06.2018 04:00:00 12,9 10,0 14 8 22 12 ZW 1016,5 10
17.06.2018 03:00:00 12,8 9,9 14 8 22 12 ZW 1016,1 11
17.06.2018 02:00:00 12,8 10,3 11 6 - - ZW 1016,0 14
17.06.2018 01:00:00 12,8 10,4 11 6 18 10 ZZW 1015,8 15
17.06.2018 00:00:00 13,3 10,0 11 6 18 10 ZW 1016,1 17
16.06.2018 23:00:00 14,8 9,3 14 8 - - ZW 1015,8 18
16.06.2018 22:00:00 16,2 9,4 11 6 25 14 ZW 1015,7 19
16.06.2018 21:00:00 16,6 9,2 14 8 36 19 WZW 1016,0 20
16.06.2018 20:00:00 17,3 8,8 22 12 - - WZW 1015,8 18
16.06.2018 19:00:00 17,3 8,3 22 12 43 23 WZW 1015,7 15
16.06.2018 18:00:00 17,8 7,4 29 16 43 23 WZW 1015,8 18
16.06.2018 17:00:00 18,1 8,5 25 14 - - WZW 1016,0 12
16.06.2018 16:00:00 18,0 7,6 25 14 43 23 WZW 1015,7 14
16.06.2018 15:00:00 18,1 8,4 22 12 43 23 WZW 1015,8 10
16.06.2018 14:00:00 19,0 10,0 22 12 - - W 1015,8 17
16.06.2018 13:00:00 17,1 8,6 22 12 32 18 WZW 1016,0 13
16.06.2018 12:00:00 17,7 11,3 18 10 29 16 WZW 1015,7 19
16.06.2018 11:00:00 16,9 12,0 11 6 - - WZW 1015,7 14
16.06.2018 10:00:00 15,6 12,0 14 8 22 12 WZW 1015,8 10
16.06.2018 09:00:00 14,6 12,3 15 8 22 12 WZW 1015,7 8
16.06.2018 08:00:00 13,1 11,6 14 8 - - ZW 1015,6 5
16.06.2018 07:00:00 12,6 11,3 11 6 18 10 ZZW 1015,2 5
16.06.2018 06:00:00 12,0 10,6 11 6 14 8 ZZW 1015,5 5
16.06.2018 05:00:00 11,3 10,1 7 4 - - ZZW 1015,7 5
16.06.2018 04:00:00 11,5 9,9 11 6 18 10 ZW 1016,1 6
16.06.2018 03:00:00 11,6 9,5 11 6 14 8 ZZW 1016,0 8
16.06.2018 02:00:00 11,6 8,5 7 4 - - ZZW 1016,6 11
16.06.2018 01:00:00 11,8 8,2 7 4 11 6 Z 1016,7 16
16.06.2018 00:00:00 12,1 8,0 4 2 11 6 N 1016,7 12
15.06.2018 23:00:00 13,7 8,8 7 4 - - ZW 1017,0 16
15.06.2018 22:00:00 15,3 8,8 7 4 14 8 ZW 1016,6 15
15.06.2018 21:00:00 17,5 9,2 7 4 18 10 WNW 1016,7 15
15.06.2018 20:00:00 18,7 11,3 11 6 - - WNW 1016,7 15
15.06.2018 19:00:00 18,0 10,5 14 8 25 14 WNW 1016,7 16

tt = temperatuur
td = dauwpunt
ff = windsnelheid
fx = windstoten
dd = windrichting
ppp = luchtdruk
vv = zicht

Weerstations in de omgeving